Flag for China Weather past 2 weeks in Guiyang, Guizhou, China

Now
28 °F

Mostly cloudy.


Feels Like: 22 °F
Forecast: 30 / 42 °F
Wind: 6 mph from North

Location: Guiyang Airport

Current Time: Feb 1, 2015 at 3:26:37 AM

Latest Report: Feb 1, 2015 at 3:00 AM


Visibility: 4 mi

Pressure: 30.30 "Hg

Humidity: 100%

Dew point: 28 °F

Location of GuiyangLocation

Historic Weather in Guiyang — Graph

°F

Guiyang temperature yesterday

Maximum temperature yesterday: 30 °F (at 11:00 AM)
Minimum temperature yesterday: 27 °F (at 4:00 AM)
Average temperature yesterday: 29 °F

Past Weeks' High & Low Weather Summary

 TemperatureHumidityPressure
High66 °F (Jan 24, 4:00 PM)100% (Jan 18, 9:00 AM)30.45 "Hg (Jan 18, 9:00 AM)
Low27 °F (Jan 31, 4:00 AM)41% (Jan 21, 4:00 PM)29.80 "Hg (Jan 24, 5:00 AM)
Average44 °F85%30.12 "Hg
* Reported Jan 17 2:00 AM — Feb 1 2:00 AM, Guiyang, Weather by CustomWeather, © 2014

Note: Actual official high and low records may vary slightly from our data, if they occured in-between our weather recording intervals... More about our weather records

Advertising

Guiyang weather history for previous 24 hours

 ConditionsComfort  
Time TempWeatherWind HumidityBarometerVisibility
2:00 AM
Feb 1
30 °FMostly cloudy.3 mph93%30.30 "Hg4 mi
1:00 AM28 °FLight freezing rain. Mostly cloudy.3 mph100%30.33 "Hg4 mi
12:00 AM30 °FMostly cloudy.3 mph93%30.33 "HgN/A
11:00 PM
Jan 31
30 °FLight freezing rain. Mostly cloudy.1 mph93%30.30 "Hg4 mi
10:00 PM30 °FLight freezing rain. Mostly cloudy.1 mph93%30.30 "Hg4 mi
9:00 PM30 °FLight freezing rain. Ice fog.3 mph93%30.30 "Hg3 mi
8:00 PM30 °FLight freezing rain. Ice fog.3 mph93%30.30 "Hg2 mi
7:00 PM30 °FLight freezing rain. Ice fog.3 mph93%30.27 "Hg2 mi
6:00 PM30 °FMostly cloudy.3 mph93%30.27 "Hg4 mi
5:00 PM30 °FMostly cloudy.6 mph86%30.24 "HgN/A
4:00 PM30 °FMore clouds than sun.3 mph86%30.24 "HgN/A
3:00 PM30 °FMore clouds than sun.3 mph86%30.27 "HgN/A
2:00 PM30 °FMore clouds than sun.6 mph86%30.30 "HgN/A
1:00 PM30 °FMore clouds than sun.8 mph86%30.33 "HgN/A
12:00 PM30 °FMostly cloudy.6 mph86%30.36 "HgN/A
11:00 AM30 °FMostly cloudy.6 mph86%30.39 "HgN/A
10:00 AM28 °FMostly cloudy.6 mph93%30.39 "HgN/A
9:00 AM28 °FMostly cloudy.3 mph93%30.36 "Hg4 mi
8:00 AM27 °FLight freezing rain. Cloudy.3 mph93%30.36 "Hg4 mi
7:00 AM27 °FLight freezing rain. Overcast.6 mph93%30.33 "HgN/A
6:00 AM27 °FLight freezing rain. Overcast.3 mph93%30.30 "HgN/A
5:00 AM27 °FLight freezing rain. Overcast.3 mph93%30.27 "HgN/A
4:00 AM27 °FLight freezing rain. Overcast.6 mph93%30.27 "HgN/A
3:00 AM28 °FLight freezing rain. Overcast.3 mph86%30.27 "Hg4 mi
Weather by CustomWeather, © 2014

See weather overviewHow to use our weather pages